| time (UTC) | temp F | wind direction | speed MPH | gust MPH | rain 1hr in | rain 24hr in | rain mn in | humidity % | barometer mb |
| 20260508105006 | 45 | 107 | 2.0 | 16.0 | 0.01 | 0.02 | 0.02 | 84 | 1013.0 |
| 20260508104520 | 45 | 121 | 6.0 | 15.0 | 0.00 | 0.01 | 0.01 | 83 | 1013.1 |
| 20260508104002 | 45 | 86 | 3.0 | 4.0 | 0.00 | 0.01 | 0.01 | 82 | 1012.9 |
| 20260508103502 | 45 | 84 | 0.0 | 3.0 | 0.00 | 0.01 | 0.01 | 81 | 1012.7 |
| 20260508103007 | 45 | 84 | 0.0 | 4.0 | 0.00 | 0.01 | 0.01 | 81 | 1012.6 |
| 20260508102504 | 45 | 70 | 2.0 | 4.0 | 0.00 | 0.01 | 0.01 | 80 | 1012.4 |
| 20260508102003 | 45 | 49 | 2.0 | 7.0 | 0.00 | 0.01 | 0.01 | 80 | 1012.3 |
| 20260508101509 | 45 | 48 | 3.0 | 7.0 | 0.00 | 0.01 | 0.01 | 80 | 1012.3 |
| 20260508101006 | 45 | 82 | 2.0 | 5.0 | 0.00 | 0.01 | 0.01 | 79 | 1012.2 |
| 20260508100506 | 46 | 44 | 2.0 | 7.0 | 0.00 | 0.01 | 0.01 | 79 | 1012.3 |
| 20260508100006 | 46 | 56 | 3.0 | 7.0 | 0.00 | 0.01 | 0.01 | 79 | 1012.3 |
| 20260508095505 | 46 | 90 | 2.0 | 7.0 | 0.00 | 0.01 | 0.01 | 78 | 1012.3 |
| 20260508095007 | 46 | 64 | 2.0 | 11.0 | 0.00 | 0.01 | 0.01 | 78 | 1012.3 |
| 20260508094521 | 46 | 58 | 3.0 | 12.0 | 0.00 | 0.01 | 0.01 | 78 | 1012.3 |
| 20260508094002 | 46 | 98 | 6.0 | 12.0 | 0.00 | 0.01 | 0.01 | 78 | 1012.3 |
| 20260508093506 | 46 | 140 | 5.0 | 17.0 | 0.00 | 0.01 | 0.01 | 78 | 1012.3 |
| 20260508093019 | 46 | 150 | 4.0 | 18.0 | 0.00 | 0.01 | 0.01 | 79 | 1012.4 |
| 20260508092509 | 45 | 135 | 7.0 | 18.0 | 0.00 | 0.01 | 0.01 | 79 | 1012.8 |
| 20260508092002 | 45 | 67 | 8.0 | 18.0 | 0.00 | 0.01 | 0.01 | 79 | 1012.6 |
| 20260508091507 | 44 | 84 | 5.0 | 9.0 | 0.00 | 0.01 | 0.01 | 80 | 1012.6 |
| 20260508091003 | 44 | 86 | 4.0 | 8.0 | 0.00 | 0.01 | 0.01 | 80 | 1012.7 |
| 20260508090502 | 44 | 112 | 3.0 | 8.0 | 0.00 | 0.01 | 0.01 | 80 | 1012.6 |
| 20260508090021 | 44 | 75 | 2.0 | 6.0 | 0.00 | 0.01 | 0.01 | 81 | 1012.7 |
| 20260508085507 | 44 | 56 | 3.0 | 6.0 | 0.00 | 0.01 | 0.01 | 81 | 1012.6 |
| 20260508085007 | 44 | 65 | 2.0 | 5.0 | 0.00 | 0.01 | 0.01 | 81 | 1012.5 |
| 20260508084512 | 44 | 47 | 2.0 | 8.0 | 0.00 | 0.01 | 0.01 | 81 | 1012.5 |
| 20260508084010 | 44 | 62 | 3.0 | 9.0 | 0.00 | 0.01 | 0.01 | 81 | 1012.4 |
| 20260508083507 | 44 | 69 | 4.0 | 9.0 | 0.00 | 0.01 | 0.01 | 80 | 1012.5 |
| 20260508083024 | 44 | 84 | 1.0 | 6.0 | 0.00 | 0.01 | 0.01 | 81 | 1012.7 |
| 20260508082503 | 44 | 67 | 3.0 | 7.0 | 0.00 | 0.01 | 0.01 | 80 | 1012.6 |
| 20260508082006 | 45 | 46 | 3.0 | 8.0 | 0.00 | 0.01 | 0.01 | 80 | 1012.8 |
| 20260508081525 | 45 | 49 | 3.0 | 8.0 | 0.00 | 0.01 | 0.01 | 79 | 1012.7 |
| 20260508081009 | 45 | 120 | 3.0 | 8.0 | 0.00 | 0.01 | 0.01 | 79 | 1012.8 |
| 20260508080507 | 45 | 76 | 4.0 | 7.0 | 0.00 | 0.01 | 0.01 | 80 | 1012.8 |
| 20260508080013 | 45 | 63 | 2.0 | 6.0 | 0.00 | 0.01 | 0.01 | 81 | 1012.8 |
| 20260508075503 | 45 | 74 | 2.0 | 6.0 | 0.00 | 0.01 | 0.01 | 80 | 1012.8 |
| 20260508075002 | 45 | 64 | 4.0 | 6.0 | 0.00 | 0.01 | 0.01 | 81 | 1012.9 |
| 20260508074525 | 46 | 60 | 3.0 | 7.0 | 0.00 | 0.01 | 0.01 | 81 | 1012.9 |
| 20260508074004 | 46 | 86 | 3.0 | 8.0 | 0.00 | 0.01 | 0.01 | 81 | 1013.0 |
| 20260508073506 | 46 | 75 | 3.0 | 8.0 | 0.00 | 0.01 | 0.01 | 80 | 1012.9 |
| 20260508073016 | 46 | 50 | 3.0 | 9.0 | 0.00 | 0.01 | 0.01 | 80 | 1012.8 |
| 20260508072506 | 46 | 76 | 6.0 | 9.0 | 0.00 | 0.01 | 0.01 | 79 | 1012.9 |
| 20260508072007 | 46 | 111 | 2.0 | 7.0 | 0.00 | 0.01 | 0.01 | 80 | 1012.9 |
| 20260508071530 | 46 | 84 | 3.0 | 8.0 | 0.00 | 0.01 | 0.01 | 80 | 1013.0 |
| 20260508071008 | 46 | 90 | 4.0 | 13.0 | 0.00 | 0.01 | 0.01 | 79 | 1013.1 |
| 20260508070512 | 46 | 113 | 7.0 | 13.0 | 0.01 | 0.01 | 0.01 | 79 | 1013.1 |
| 20260508070030 | 46 | 83 | 7.0 | 15.0 | 0.01 | 0.01 | 0.01 | 79 | 1013.2 |
| 20260508065503 | 46 | 71 | 7.0 | 24.0 | 0.01 | 0.01 | 0.01 | 79 | 1013.2 |
| 20260508065008 | 45 | 78 | 13.0 | 24.0 | 0.01 | 0.01 | 0.01 | 78 | 1013.1 |
| 20260508064527 | 45 | 71 | 5.0 | 11.0 | 0.01 | 0.01 | 0.01 | 81 | 1013.1 |
| 20260508064011 | 45 | 84 | 6.0 | 11.0 | 0.01 | 0.01 | 0.01 | 82 | 1013.0 |
| 20260508063502 | 45 | 80 | 3.0 | 6.0 | 0.01 | 0.01 | 0.01 | 83 | 1013.2 |
| 20260508063019 | 45 | 53 | 2.0 | 4.0 | 0.01 | 0.01 | 0.01 | 83 | 1013.1 |
| 20260508062508 | 45 | 38 | 2.0 | 4.0 | 0.01 | 0.01 | 0.01 | 84 | 1013.0 |
| 20260508062009 | 44 | 34 | 2.0 | 3.0 | 0.01 | 0.01 | 0.01 | 83 | 1013.0 |
| 20260508061521 | 44 | 45 | 1.0 | 3.0 | 0.01 | 0.01 | 0.01 | 83 | 1013.1 |
| 20260508061009 | 44 | 102 | 0.0 | 2.0 | 0.01 | 0.01 | 0.01 | 84 | 1013.1 |
| 20260508060508 | 45 | 102 | 0.0 | 4.0 | 0.00 | 0.00 | 0.00 | 83 | 1013.2 |
| 20260508060019 | 45 | 102 | 0.0 | 4.0 | 0.00 | 0.00 | 0.00 | 84 | 1013.3 |
| 20260508055505 | 44 | 94 | 2.0 | 3.0 | 0.00 | 0.00 | 0.00 | 83 | 1013.3 |
| 20260508055011 | 44 | 101 | 0.0 | 0.0 | 0.00 | 0.00 | 0.00 | 81 | 1013.2 |
| 20260508054527 | 44 | 101 | 0.0 | 0.0 | 0.00 | 0.00 | 0.00 | 81 | 1013.2 |
| 20260508054007 | 44 | 101 | 0.0 | 0.0 | 0.00 | 0.00 | 0.00 | 80 | 1013.3 |
| 20260508053509 | 45 | 101 | 0.0 | 0.0 | 0.00 | 0.00 | 0.00 | 79 | 1013.3 |
| 20260508053028 | 45 | 101 | 0.0 | 0.0 | 0.00 | 0.00 | 0.00 | 81 | 1013.4 |
| 20260508052511 | 45 | 101 | 0.0 | 0.0 | 0.00 | 0.00 | 0.00 | 81 | 1013.4 |
| 20260508052008 | 45 | 101 | 0.0 | 0.0 | 0.00 | 0.00 | 0.00 | 81 | 1013.4 |
| 20260508051516 | 45 | 101 | 0.0 | 0.0 | 0.00 | 0.00 | 0.00 | 80 | 1013.4 |
| 20260508051005 | 45 | 101 | 0.0 | 0.0 | 0.00 | 0.00 | 0.00 | 81 | 1013.4 |
| 20260508050505 | 46 | 101 | 0.0 | 0.0 | 0.00 | 0.00 | 0.00 | 78 | 1013.2 |
| 20260508050027 | 46 | 101 | 0.0 | 2.0 | 0.00 | 0.00 | 0.00 | 78 | 1013.3 |
| 20260508045512 | 46 | 101 | 0.0 | 3.0 | 0.00 | 0.00 | 0.00 | 77 | 1013.3 |
| 20260508045008 | 46 | 101 | 0.0 | 4.0 | 0.00 | 0.00 | 0.00 | 77 | 1013.3 |
| 20260508044523 | 46 | 113 | 2.0 | 6.0 | 0.00 | 0.00 | 0.00 | 76 | 1013.3 |
| 20260508044008 | 47 | 105 | 2.0 | 8.0 | 0.00 | 0.00 | 0.00 | 74 | 1013.3 |
| 20260508043514 | 47 | 29 | 1.0 | 8.0 | 0.00 | 0.00 | 0.00 | 73 | 1013.4 |
| 20260508043027 | 47 | 76 | 3.0 | 6.0 | 0.00 | 0.00 | 0.00 | 72 | 1013.9 |
| 20260508042507 | 47 | 113 | 1.0 | 3.0 | 0.00 | 0.00 | 0.00 | 71 | 1013.7 |
| 20260508042012 | 47 | 133 | 1.0 | 4.0 | 0.00 | 0.00 | 0.00 | 72 | 1013.6 |
| 20260508041530 | 47 | 131 | 0.0 | 4.0 | 0.00 | 0.00 | 0.00 | 71 | 1013.5 |
| 20260508041008 | 47 | 113 | 1.0 | 4.0 | 0.00 | 0.00 | 0.00 | 71 | 1013.4 |
| 20260508040512 | 47 | 122 | 1.0 | 7.0 | 0.00 | 0.00 | 0.00 | 71 | 1013.5 |
| 20260508040013 | 47 | 127 | 2.0 | 7.0 | 0.00 | 0.00 | 0.00 | 68 | 1013.6 |
| 20260508035505 | 47 | 103 | 2.0 | 6.0 | 0.00 | 0.00 | 0.00 | 69 | 1013.5 |
| 20260508035004 | 47 | 124 | 1.0 | 8.0 | 0.00 | 0.00 | 0.00 | 69 | 1013.5 |
| 20260508034509 | 47 | 114 | 2.0 | 8.0 | 0.00 | 0.00 | 0.00 | 69 | 1013.5 |
| 20260508034003 | 47 | 101 | 1.0 | 5.0 | 0.00 | 0.00 | 0.00 | 69 | 1013.5 |
| 20260508033510 | 47 | 65 | 1.0 | 9.0 | 0.00 | 0.00 | 0.00 | 67 | 1013.4 |
| 20260508033010 | 47 | 130 | 2.0 | 9.0 | 0.00 | 0.00 | 0.00 | 68 | 1013.5 |
| 20260508032504 | 46 | 111 | 4.0 | 9.0 | 0.00 | 0.00 | 0.00 | 67 | 1013.5 |
| 20260508032010 | 46 | 137 | 2.0 | 10.0 | 0.00 | 0.00 | 0.00 | 69 | 1013.6 |
| 20260508031512 | 46 | 68 | 4.0 | 10.0 | 0.00 | 0.00 | 0.00 | 69 | 1013.5 |
| 20260508031003 | 45 | 101 | 4.0 | 10.0 | 0.00 | 0.00 | 0.00 | 70 | 1013.6 |
| 20260508030505 | 45 | 74 | 2.0 | 4.0 | 0.00 | 0.00 | 0.00 | 71 | 1013.6 |
| 20260508030020 | 44 | 40 | 1.0 | 3.0 | 0.00 | 0.00 | 0.00 | 71 | 1013.5 |
| 20260508025508 | 44 | 40 | 1.0 | 3.0 | 0.00 | 0.00 | 0.00 | 70 | 1013.4 |
| 20260508025005 | 44 | 51 | 1.0 | 3.0 | 0.00 | 0.00 | 0.00 | 70 | 1013.4 |
| 20260508024514 | 44 | 70 | 0.0 | 3.0 | 0.00 | 0.00 | 0.00 | 69 | 1013.4 |
| 20260508024007 | 44 | 137 | 0.0 | 2.0 | 0.00 | 0.00 | 0.00 | 70 | 1013.4 |
| 20260508023508 | 44 | 137 | 0.0 | 0.0 | 0.00 | 0.00 | 0.00 | 69 | 1013.4 |
| 20260508023010 | 44 | 137 | 0.0 | 0.0 | 0.00 | 0.00 | 0.00 | 70 | 1013.5 |
| 20260508022506 | 44 | 137 | 0.0 | 0.0 | 0.00 | 0.00 | 0.00 | 69 | 1013.4 |
| 20260508022004 | 44 | 137 | 0.0 | 0.0 | 0.00 | 0.00 | 0.00 | 70 | 1013.5 |
| 20260508021515 | 44 | 137 | 0.0 | 0.0 | 0.00 | 0.00 | 0.00 | 70 | 1013.4 |
| 20260508021002 | 44 | 137 | 0.0 | 0.0 | 0.00 | 0.00 | 0.00 | 69 | 1013.3 |
| 20260508020505 | 44 | 137 | 0.0 | 0.0 | 0.00 | 0.00 | 0.00 | 70 | 1013.3 |
| 20260508020012 | 44 | 137 | 0.0 | 0.0 | 0.00 | 0.00 | 0.00 | 70 | 1013.3 |
| 20260508015502 | 44 | 137 | 0.0 | 0.0 | 0.00 | 0.00 | 0.00 | 69 | 1013.3 |
| 20260508015007 | 45 | 137 | 0.0 | 0.0 | 0.00 | 0.00 | 0.00 | 69 | 1013.3 |
| 20260508014517 | 45 | 137 | 0.0 | 1.0 | 0.00 | 0.00 | 0.00 | 69 | 1013.3 |
| 20260508014008 | 45 | 137 | 0.0 | 1.0 | 0.00 | 0.00 | 0.00 | 68 | 1013.2 |
| 20260508013502 | 45 | 137 | 0.0 | 1.0 | 0.00 | 0.00 | 0.00 | 67 | 1013.2 |
| 20260508013033 | 45 | 137 | 0.0 | 1.0 | 0.00 | 0.00 | 0.00 | 66 | 1013.2 |
| 20260508012508 | 46 | 137 | 0.0 | 0.0 | 0.00 | 0.00 | 0.00 | 65 | 1013.2 |
| 20260508012005 | 46 | 137 | 0.0 | 0.0 | 0.00 | 0.00 | 0.00 | 65 | 1013.2 |
| 20260508011516 | 46 | 137 | 0.0 | 0.0 | 0.00 | 0.00 | 0.00 | 64 | 1013.1 |
| 20260508011005 | 46 | 137 | 0.0 | 0.0 | 0.00 | 0.00 | 0.00 | 63 | 1013.0 |
| 20260508010509 | 47 | 137 | 0.0 | 0.0 | 0.00 | 0.00 | 0.00 | 63 | 1013.0 |
| 20260508010015 | 47 | 137 | 0.0 | 0.0 | 0.00 | 0.00 | 0.00 | 62 | 1013.0 |
| 20260508005505 | 48 | 137 | 0.0 | 1.0 | 0.00 | 0.00 | 0.00 | 62 | 1013.1 |
| 20260508005006 | 48 | 137 | 0.0 | 1.0 | 0.00 | 0.00 | 0.00 | 61 | 1013.0 |
| 20260508004527 | 48 | 137 | 0.0 | 1.0 | 0.00 | 0.00 | 0.00 | 61 | 1013.0 |
| 20260508004008 | 49 | 137 | 0.0 | 1.0 | 0.00 | 0.00 | 0.00 | 60 | 1012.9 |
| 20260508003511 | 49 | 137 | 0.0 | 2.0 | 0.00 | 0.00 | 0.00 | 59 | 1012.9 |
| 20260508003022 | 50 | 137 | 0.0 | 3.0 | 0.00 | 0.00 | 0.00 | 59 | 1012.9 |
| 20260508002504 | 50 | 137 | 0.0 | 3.0 | 0.00 | 0.00 | 0.00 | 57 | 1012.9 |
| 20260508002007 | 50 | 163 | 0.0 | 4.0 | 0.00 | 0.00 | 0.00 | 57 | 1012.8 |
| 20260508001521 | 51 | 163 | 0.0 | 4.0 | 0.00 | 0.00 | 0.00 | 57 | 1012.8 |
| 20260508001009 | 51 | 148 | 0.0 | 3.0 | 0.00 | 0.00 | 0.00 | 55 | 1012.7 |
| 20260508000504 | 51 | 148 | 1.0 | 5.0 | 0.00 | 0.00 | 0.00 | 57 | 1012.7 |
| 20260508000023 | 52 | 159 | 0.0 | 5.0 | 0.00 | 0.00 | 0.00 | 54 | 1012.6 |
| 20260507235507 | 52 | 131 | 0.0 | 4.0 | 0.00 | 0.00 | 0.00 | 57 | 1012.5 |
| 20260507235008 | 52 | 151 | 1.0 | 9.0 | 0.00 | 0.00 | 0.00 | 54 | 1012.4 |
| 20260507234512 | 53 | 141 | 1.0 | 9.0 | 0.00 | 0.00 | 0.00 | 54 | 1012.4 |
| 20260507234005 | 54 | 138 | 0.0 | 6.0 | 0.00 | 0.00 | 0.00 | 53 | 1012.3 |
| 20260507233504 | 54 | 140 | 0.0 | 9.0 | 0.00 | 0.00 | 0.00 | 52 | 1012.2 |
| 20260507233027 | 55 | 134 | 1.0 | 9.0 | 0.00 | 0.00 | 0.00 | 49 | 1012.2 |
| 20260507232510 | 55 | 157 | 2.0 | 9.0 | 0.00 | 0.00 | 0.00 | 51 | 1012.2 |
| 20260507232012 | 55 | 117 | 2.0 | 9.0 | 0.00 | 0.00 | 0.00 | 50 | 1012.2 |
| 20260507231521 | 55 | 84 | 1.0 | 9.0 | 0.00 | 0.00 | 0.00 | 50 | 1012.2 |
| 20260507231012 | 55 | 122 | 4.0 | 9.0 | 0.00 | 0.00 | 0.00 | 48 | 1012.3 |
| 20260507230510 | 56 | 126 | 1.0 | 8.0 | 0.00 | 0.00 | 0.00 | 49 | 1012.3 |
| 20260507230024 | 56 | 101 | 3.0 | 15.0 | 0.00 | 0.00 | 0.00 | 48 | 1012.3 |
| 20260507225507 | 56 | 124 | 3.0 | 16.0 | 0.00 | 0.00 | 0.00 | 46 | 1012.2 |
| 20260507225007 | 56 | 95 | 9.0 | 16.0 | 0.00 | 0.00 | 0.00 | 46 | 1012.2 |
| 20260507224531 | 56 | 95 | 9.0 | 15.0 | 0.00 | 0.00 | 0.00 | 43 | 1012.2 |
| 20260507224007 | 57 | 138 | 7.0 | 17.0 | 0.00 | 0.00 | 0.00 | 45 | 1012.3 |
| 20260507223504 | 57 | 147 | 6.0 | 17.0 | 0.00 | 0.00 | 0.00 | 45 | 1012.4 |
| 20260507223023 | 57 | 151 | 6.0 | 25.0 | 0.00 | 0.00 | 0.00 | 47 | 1012.3 |
| 20260507222505 | 56 | 100 | 7.0 | 25.0 | 0.00 | 0.00 | 0.00 | 46 | 1012.4 |
| 20260507222006 | 57 | 92 | 5.0 | 17.0 | 0.00 | 0.00 | 0.00 | 47 | 1012.3 |
| 20260507221520 | 57 | 123 | 6.0 | 20.0 | 0.00 | 0.00 | 0.00 | 47 | 1012.3 |
| 20260507221010 | 57 | 131 | 10.0 | 20.0 | 0.00 | 0.00 | 0.00 | 45 | 1012.3 |
| 20260507220510 | 57 | 110 | 9.0 | 20.0 | 0.00 | 0.00 | 0.00 | 48 | 1012.3 |
| 20260507220022 | 57 | 169 | 8.0 | 18.0 | 0.00 | 0.00 | 0.00 | 48 | 1012.2 |
| 20260507215506 | 56 | 158 | 6.0 | 14.0 | 0.00 | 0.00 | 0.00 | 49 | 1012.3 |
| 20260507215009 | 57 | 154 | 7.0 | 18.0 | 0.00 | 0.00 | 0.00 | 49 | 1012.2 |
| 20260507214509 | 57 | 107 | 8.0 | 18.0 | 0.00 | 0.00 | 0.00 | 48 | 1012.1 |
| 20260507214002 | 57 | 98 | 9.0 | 16.0 | 0.00 | 0.00 | 0.00 | 48 | 1012.0 |
| 20260507213503 | 57 | 131 | 4.0 | 13.0 | 0.00 | 0.00 | 0.00 | 52 | 1012.1 |
| 20260507213010 | 56 | 136 | 3.0 | 15.0 | 0.00 | 0.00 | 0.00 | 50 | 1012.0 |
| 20260507212501 | 56 | 74 | 9.0 | 16.0 | 0.00 | 0.00 | 0.00 | 47 | 1011.9 |
| 20260507212003 | 57 | 136 | 7.0 | 16.0 | 0.00 | 0.00 | 0.00 | 47 | 1011.9 |
| 20260507211504 | 58 | 134 | 7.0 | 15.0 | 0.00 | 0.00 | 0.00 | 46 | 1011.8 |
| 20260507211004 | 57 | 113 | 6.0 | 14.0 | 0.00 | 0.00 | 0.00 | 50 | 1011.8 |
| 20260507210502 | 57 | 119 | 6.0 | 17.0 | 0.00 | 0.00 | 0.00 | 53 | 1011.7 |
| 20260507210009 | 57 | 97 | 5.0 | 17.0 | 0.00 | 0.00 | 0.00 | 54 | 1011.6 |
| 20260507205503 | 56 | 115 | 6.0 | 17.0 | 0.00 | 0.00 | 0.00 | 53 | 1011.6 |
| 20260507205004 | 56 | 146 | 7.0 | 19.0 | 0.00 | 0.00 | 0.00 | 53 | 1011.7 |
| 20260507204504 | 56 | 161 | 9.0 | 19.0 | 0.00 | 0.00 | 0.00 | 51 | 1011.6 |
| 20260507204003 | 57 | 99 | 8.0 | 18.0 | 0.00 | 0.00 | 0.00 | 50 | 1011.6 |
| 20260507203505 | 59 | 169 | 6.0 | 17.0 | 0.00 | 0.00 | 0.00 | 49 | 1011.4 |
| 20260507203003 | 59 | 146 | 8.0 | 19.0 | 0.00 | 0.00 | 0.00 | 49 | 1011.3 |
| 20260507202503 | 59 | 130 | 8.0 | 19.0 | 0.00 | 0.00 | 0.00 | 48 | 1011.3 |
| 20260507202005 | 59 | 94 | 9.0 | 18.0 | 0.00 | 0.00 | 0.00 | 52 | 1011.5 |
| 20260507201512 | 58 | 129 | 5.0 | 16.0 | 0.00 | 0.00 | 0.00 | 52 | 1011.5 |
| 20260507201003 | 58 | 105 | 6.0 | 16.0 | 0.00 | 0.00 | 0.00 | 49 | 1011.5 |
| 20260507200504 | 59 | 143 | 6.0 | 17.0 | 0.00 | 0.00 | 0.00 | 50 | 1011.6 |
| 20260507200006 | 58 | 107 | 8.0 | 17.0 | 0.00 | 0.00 | 0.00 | 49 | 1011.5 |
| 20260507195502 | 57 | 112 | 3.0 | 14.0 | 0.00 | 0.00 | 0.00 | 52 | 1011.5 |
| 20260507195003 | 58 | 144 | 3.0 | 14.0 | 0.00 | 0.00 | 0.00 | 52 | 1011.6 |
| 20260507194504 | 59 | 146 | 5.0 | 15.0 | 0.00 | 0.00 | 0.00 | 48 | 1011.7 |
| 20260507194002 | 59 | 73 | 7.0 | 15.0 | 0.00 | 0.00 | 0.00 | 51 | 1011.8 |
| 20260507193502 | 58 | 63 | 5.0 | 17.0 | 0.00 | 0.00 | 0.00 | 48 | 1011.8 |
| 20260507193004 | 58 | 118 | 5.0 | 17.0 | 0.00 | 0.00 | 0.00 | 52 | 1011.9 |
| 20260507192504 | 58 | 128 | 7.0 | 17.0 | 0.00 | 0.00 | 0.00 | 51 | 1011.9 |
| 20260507192004 | 58 | 102 | 4.0 | 17.0 | 0.00 | 0.00 | 0.00 | 52 | 1011.9 |
| 20260507191503 | 59 | 153 | 5.0 | 14.0 | 0.00 | 0.00 | 0.00 | 50 | 1012.0 |
| 20260507191004 | 58 | 118 | 5.0 | 16.0 | 0.00 | 0.00 | 0.00 | 52 | 1012.0 |
| 20260507190503 | 58 | 105 | 7.0 | 16.0 | 0.00 | 0.00 | 0.00 | 50 | 1011.9 |
| 20260507190016 | 57 | 125 | 8.0 | 15.0 | 0.00 | 0.00 | 0.00 | 52 | 1012.0 |
| 20260507185502 | 57 | 111 | 8.0 | 15.0 | 0.00 | 0.00 | 0.00 | 50 | 1012.0 |
| 20260507185008 | 58 | 90 | 7.0 | 22.0 | 0.00 | 0.00 | 0.00 | 48 | 1011.9 |
| 20260507184514 | 58 | 123 | 7.0 | 22.0 | 0.00 | 0.00 | 0.00 | 49 | 1012.0 |
| 20260507184003 | 58 | 90 | 8.0 | 18.0 | 0.00 | 0.00 | 0.00 | 48 | 1011.9 |
| 20260507183502 | 58 | 161 | 2.0 | 13.0 | 0.00 | 0.00 | 0.00 | 58 | 1011.9 |
| 20260507183004 | 59 | 145 | 5.0 | 15.0 | 0.00 | 0.00 | 0.00 | 51 | 1012.0 |
| 20260507182504 | 59 | 74 | 10.0 | 15.0 | 0.00 | 0.00 | 0.00 | 48 | 1012.0 |
| 20260507182004 | 58 | 90 | 8.0 | 13.0 | 0.00 | 0.00 | 0.00 | 53 | 1012.0 |
| 20260507181510 | 57 | 123 | 2.0 | 14.0 | 0.00 | 0.00 | 0.00 | 54 | 1012.0 |
| 20260507181006 | 57 | 129 | 3.0 | 16.0 | 0.00 | 0.00 | 0.00 | 52 | 1012.0 |
| 20260507180509 | 58 | 82 | 7.0 | 18.0 | 0.00 | 0.00 | 0.00 | 50 | 1012.0 |
| 20260507180008 | 57 | 101 | 5.0 | 18.0 | 0.00 | 0.00 | 0.00 | 55 | 1012.0 |
| 20260507175503 | 57 | 132 | 4.0 | 15.0 | 0.00 | 0.00 | 0.00 | 52 | 1012.1 |
| 20260507175007 | 57 | 76 | 10.0 | 15.0 | 0.00 | 0.00 | 0.00 | 49 | 1012.0 |
| 20260507174503 | 58 | 107 | 6.0 | 15.0 | 0.00 | 0.00 | 0.00 | 49 | 1012.0 |
| 20260507174003 | 58 | 138 | 6.0 | 16.0 | 0.00 | 0.00 | 0.00 | 52 | 1012.1 |
| 20260507173507 | 58 | 117 | 6.0 | 16.0 | 0.00 | 0.00 | 0.00 | 57 | 1012.2 |
| 20260507173031 | 58 | 109 | 6.0 | 13.0 | 0.00 | 0.00 | 0.00 | 53 | 1012.1 |
| 20260507172503 | 58 | 139 | 5.0 | 14.0 | 0.00 | 0.00 | 0.00 | 55 | 1012.1 |
| 20260507172004 | 58 | 132 | 9.0 | 15.0 | 0.00 | 0.00 | 0.00 | 50 | 1012.2 |
| 20260507171503 | 58 | 52 | 9.0 | 15.0 | 0.00 | 0.00 | 0.00 | 48 | 1012.2 |
| 20260507171002 | 58 | 148 | 3.0 | 18.0 | 0.00 | 0.00 | 0.00 | 54 | 1012.3 |
| 20260507170504 | 58 | 83 | 11.0 | 18.0 | 0.00 | 0.00 | 0.00 | 49 | 1012.2 |
| 20260507170015 | 58 | 38 | 8.0 | 13.0 | 0.00 | 0.00 | 0.00 | 51 | 1012.3 |
| 20260507165505 | 58 | 94 | 5.0 | 17.0 | 0.00 | 0.00 | 0.00 | 52 | 1012.3 |
| 20260507165003 | 58 | 157 | 2.0 | 17.0 | 0.00 | 0.00 | 0.00 | 58 | 1012.4 |
| 20260507164512 | 57 | 107 | 6.0 | 19.0 | 0.00 | 0.00 | 0.00 | 51 | 1012.4 |
| 20260507164007 | 57 | 71 | 11.0 | 19.0 | 0.00 | 0.00 | 0.00 | 48 | 1012.3 |
| 20260507163506 | 57 | 128 | 5.0 | 18.0 | 0.00 | 0.00 | 0.00 | 53 | 1012.4 |
| 20260507163009 | 56 | 90 | 4.0 | 16.0 | 0.00 | 0.00 | 0.00 | 52 | 1012.3 |
| 20260507162503 | 56 | 132 | 9.0 | 16.0 | 0.00 | 0.00 | 0.00 | 48 | 1012.4 |
| 20260507162009 | 56 | 105 | 9.0 | 16.0 | 0.00 | 0.00 | 0.00 | 54 | 1012.4 |
| 20260507161523 | 57 | 112 | 9.0 | 19.0 | 0.00 | 0.00 | 0.00 | 46 | 1012.4 |
| 20260507161000 | 57 | 84 | 8.0 | 19.0 | 0.00 | 0.00 | 0.00 | 49 | 1012.3 |
| 20260507160502 | 56 | 114 | 5.0 | 14.0 | 0.00 | 0.00 | 0.00 | 59 | 1012.3 |
| 20260507160008 | 56 | 22 | 4.0 | 14.0 | 0.00 | 0.00 | 0.00 | 54 | 1012.3 |
| 20260507155506 | 56 | 139 | 5.0 | 14.0 | 0.00 | 0.00 | 0.00 | 54 | 1012.4 |
| 20260507155003 | 55 | 107 | 4.0 | 20.0 | 0.00 | 0.00 | 0.00 | 51 | 1012.3 |
| 20260507154527 | 55 | 69 | 9.0 | 20.0 | 0.00 | 0.00 | 0.00 | 52 | 1012.4 |
| 20260507154009 | 55 | 58 | 5.0 | 13.0 | 0.00 | 0.00 | 0.00 | 54 | 1012.4 |
| 20260507153504 | 55 | 61 | 5.0 | 14.0 | 0.00 | 0.00 | 0.00 | 52 | 1012.4 |
| 20260507153030 | 55 | 123 | 7.0 | 15.0 | 0.00 | 0.00 | 0.00 | 51 | 1012.4 |
| 20260507152507 | 55 | 107 | 3.0 | 15.0 | 0.00 | 0.00 | 0.00 | 58 | 1012.5 |
| 20260507152009 | 54 | 63 | 7.0 | 14.0 | 0.00 | 0.00 | 0.00 | 53 | 1012.4 |
| 20260507151512 | 54 | 148 | 3.0 | 12.0 | 0.00 | 0.00 | 0.00 | 54 | 1012.4 |
| 20260507151006 | 55 | 96 | 6.0 | 12.0 | 0.00 | 0.00 | 0.00 | 54 | 1012.4 |
| 20260507150510 | 55 | 105 | 7.0 | 15.0 | 0.00 | 0.00 | 0.00 | 59 | 1012.6 |
| 20260507150008 | 54 | 71 | 8.0 | 15.0 | 0.00 | 0.00 | 0.00 | 53 | 1012.6 |
| 20260507145508 | 54 | 141 | 7.0 | 17.0 | 0.00 | 0.00 | 0.00 | 56 | 1012.5 |
| 20260507145007 | 54 | 97 | 7.0 | 17.0 | 0.00 | 0.00 | 0.00 | 56 | 1012.7 |
| 20260507144510 | 54 | 113 | 8.0 | 15.0 | 0.00 | 0.00 | 0.00 | 56 | 1012.8 |
| 20260507144003 | 54 | 98 | 7.0 | 15.0 | 0.00 | 0.00 | 0.00 | 58 | 1012.7 |
| 20260507143505 | 54 | 86 | 5.0 | 13.0 | 0.00 | 0.00 | 0.00 | 60 | 1012.7 |
| 20260507143022 | 54 | 133 | 3.0 | 13.0 | 0.00 | 0.00 | 0.00 | 66 | 1012.7 |
| 20260507142507 | 53 | 96 | 7.0 | 17.0 | 0.00 | 0.00 | 0.00 | 61 | 1012.7 |
| 20260507142006 | 53 | 71 | 8.0 | 17.0 | 0.00 | 0.00 | 0.00 | 61 | 1012.7 |
| 20260507141521 | 53 | 76 | 8.0 | 17.0 | 0.00 | 0.00 | 0.00 | 62 | 1012.8 |
| 20260507141008 | 53 | 50 | 6.0 | 12.0 | 0.00 | 0.00 | 0.00 | 65 | 1012.9 |
| 20260507140504 | 53 | 118 | 7.0 | 12.0 | 0.00 | 0.00 | 0.00 | 62 | 1012.9 |
| 20260507140016 | 53 | 40 | 3.0 | 12.0 | 0.00 | 0.00 | 0.00 | 67 | 1013.0 |
| 20260507135509 | 52 | 89 | 5.0 | 12.0 | 0.00 | 0.00 | 0.00 | 68 | 1013.1 |
| 20260507135011 | 52 | 113 | 3.0 | 9.0 | 0.00 | 0.00 | 0.00 | 68 | 1013.2 |
| 20260507134515 | 51 | 110 | 4.0 | 9.0 | 0.00 | 0.00 | 0.00 | 67 | 1013.2 |
| 20260507134006 | 51 | 117 | 5.0 | 9.0 | 0.00 | 0.00 | 0.00 | 68 | 1013.2 |
| 20260507133510 | 51 | 127 | 2.0 | 10.0 | 0.00 | 0.00 | 0.00 | 72 | 1013.3 |
| 20260507133012 | 51 | 63 | 6.0 | 10.0 | 0.00 | 0.00 | 0.00 | 74 | 1013.3 |
| 20260507132503 | 51 | 138 | 3.0 | 8.0 | 0.00 | 0.00 | 0.00 | 74 | 1013.3 |
| 20260507132007 | 50 | 91 | 1.0 | 10.0 | 0.00 | 0.00 | 0.00 | 75 | 1013.3 |
| 20260507131519 | 49 | 119 | 6.0 | 10.0 | 0.00 | 0.00 | 0.00 | 73 | 1013.3 |
| 20260507131003 | 49 | 122 | 2.0 | 10.0 | 0.00 | 0.00 | 0.00 | 77 | 1013.2 |
| 20260507130505 | 48 | 127 | 4.0 | 10.0 | 0.00 | 0.00 | 0.00 | 76 | 1013.3 |
| 20260507130035 | 48 | 103 | 4.0 | 10.0 | 0.00 | 0.00 | 0.00 | 77 | 1013.2 |
| 20260507125510 | 48 | 48 | 6.0 | 10.0 | 0.00 | 0.00 | 0.00 | 79 | 1013.2 |
| 20260507125008 | 47 | 52 | 5.0 | 10.0 | 0.00 | 0.00 | 0.00 | 80 | 1013.2 |
| 20260507124501 | 46 | 64 | 3.0 | 10.0 | 0.00 | 0.00 | 0.00 | 81 | 1013.3 |
| 20260507124001 | 45 | 45 | 4.0 | 8.0 | 0.00 | 0.00 | 0.00 | 83 | 1013.3 |
| 20260507123501 | 45 | 122 | 4.0 | 9.0 | 0.00 | 0.00 | 0.00 | 83 | 1013.2 |
| 20260507123002 | 44 | 101 | 3.0 | 9.0 | 0.00 | 0.00 | 0.00 | 84 | 1013.2 |
| 20260507122502 | 43 | 100 | 4.0 | 8.0 | 0.00 | 0.00 | 0.00 | 87 | 1013.3 |
| 20260507122006 | 42 | 82 | 3.0 | 9.0 | 0.00 | 0.00 | 0.00 | 88 | 1013.2 |
| 20260507121516 | 42 | 30 | 5.0 | 9.0 | 0.00 | 0.00 | 0.00 | 89 | 1013.1 |
| 20260507121002 | 41 | 63 | 3.0 | 8.0 | 0.00 | 0.00 | 0.00 | 90 | 1013.1 |
| 20260507120504 | 41 | 57 | 2.0 | 6.0 | 0.00 | 0.00 | 0.00 | 90 | 1013.2 |
| 20260507120020 | 41 | 66 | 2.0 | 5.0 | 0.00 | 0.00 | 0.00 | 92 | 1013.2 |
| 20260507115503 | 40 | 71 | 2.0 | 5.0 | 0.00 | 0.00 | 0.00 | 93 | 1013.3 |
| 20260507115001 | 40 | 66 | 2.0 | 4.0 | 0.00 | 0.00 | 0.00 | 94 | 1013.4 |
| 20260507114503 | 40 | 13 | 0.0 | 3.0 | 0.00 | 0.00 | 0.00 | 94 | 1013.3 |
| 20260507114005 | 39 | 13 | 1.0 | 3.0 | 0.00 | 0.00 | 0.00 | 94 | 1013.2 |
| 20260507113503 | 39 | 13 | 0.0 | 2.0 | 0.00 | 0.00 | 0.00 | 94 | 1013.3 |
| 20260507113006 | 39 | 13 | 0.0 | 2.0 | 0.00 | 0.00 | 0.00 | 94 | 1013.2 |
| 20260507112502 | 39 | 13 | 0.0 | 2.0 | 0.00 | 0.00 | 0.00 | 94 | 1013.2 |
| 20260507112002 | 39 | 13 | 0.0 | 1.0 | 0.00 | 0.00 | 0.00 | 94 | 1013.1 |
| 20260507111503 | 38 | 13 | 0.0 | 2.0 | 0.00 | 0.00 | 0.00 | 94 | 1013.2 |
| 20260507111003 | 38 | 13 | 0.0 | 3.0 | 0.00 | 0.00 | 0.00 | 94 | 1013.2 |
| 20260507110506 | 38 | 13 | 1.0 | 3.0 | 0.00 | 0.00 | 0.00 | 94 | 1013.1 |
| 20260507110016 | 38 | 343 | 0.0 | 2.0 | 0.00 | 0.00 | 0.00 | 94 | 1013.0 |
| 20260507105502 | 38 | 343 | 0.0 | 3.0 | 0.00 | 0.00 | 0.00 | 94 | 1012.9 |